Home > Weather > Stroudsburg > Past weeks

Flag for U.S.A. Weather for the Past 2 Weeks in Stroudsburg, Pennsylvania, U.S.A.

Now
13 °F

Partly sunny.


Feels Like: -4 °F
Forecast: 15 / 22 °F
Wind: 17 mph from Northwest

Location: Pocono Mountains Municipal Airport

Current Time: Feb 11, 2016 at 4:42:43 PM

Latest Report: Feb 11, 2016 at 3:53 PM


Visibility: 10 mi

Pressure: 29.95 "Hg

Humidity: 42%

Dew point: -6 °F

Location of StroudsburgLocation

Historic Weather in Stroudsburg — Graph

°F

Stroudsburg Temperature Yesterday

Maximum temperature yesterday: 28 °F (at 10:53 AM)
Minimum temperature yesterday: 17 °F (at 11:53 PM)
Average temperature yesterday: 25 °F

High & Low Weather Summary for the Past Weeks

 TemperatureHumidityPressure
High53 °F (Jan 31, 2:53 PM)97% (Feb 3, 8:53 AM)30.38 "Hg (Feb 3, 8:53 AM)
Low9 °F (Feb 11, 6:53 AM)35% (Jan 30, 12:53 PM)29.42 "Hg (Jan 29, 8:59 AM)
Average31 °F67%29.92 "Hg
* Reported Jan 27 2:53 PM — Feb 11 2:53 PM, Stroudsburg, Weather by CustomWeather, © 2016

Note: Actual official high and low records may vary slightly from our data, if they occured in-between our weather recording intervals... More about our weather records

Advertising

Stroudsburg Weather History for the Previous 24 Hours

 ConditionsComfort  
Time TempWeatherWind HumidityBarometerVisibility
2:53 PM
Thu, Feb 11
13 °FMostly cloudy.18 mph46%29.92 "Hg10 mi
1:53 PM15 °FOvercast.16 mph44%29.88 "Hg10 mi
12:53 PM13 °FLight snow. Mostly cloudy.16 mph61%29.89 "Hg1 mi
11:53 AM15 °FMostly cloudy.29 mph44%29.89 "Hg10 mi
10:53 AM13 °FMostly cloudy.20 mph44%29.89 "Hg10 mi
9:53 AM13 °FScattered clouds.18 mph51%29.86 "Hg10 mi
8:53 AM12 °FPassing clouds.17 mph53%29.86 "Hg10 mi
7:53 AM10 °FPassing clouds.18 mph61%29.84 "Hg10 mi
6:53 AM9 °FClear.13 mph64%29.82 "Hg10 mi
5:53 AM10 °FClear.15 mph61%29.80 "Hg10 mi
4:53 AM11 °FClear.14 mph59%29.79 "Hg10 mi
3:53 AM12 °FClear.14 mph51%29.77 "Hg10 mi
2:53 AM14 °FPassing clouds.15 mph47%29.77 "Hg10 mi
1:53 AM15 °FOvercast.22 mph46%29.75 "Hg8 mi
12:58 AM16 °FLight snow. Overcast.16 mph74%29.67 "Hg3 mi
11:53 PM
Wed, Feb 10
17 °FLight snow. Ice fog.20 mph80%29.75 "Hg1 mi
11:00 PM18 °FLight snow. Overcast.15 mph77%29.66 "Hg3 mi
9:53 PM20 °FOvercast.16 mph68%29.72 "Hg8 mi
8:53 PM21 °FOvercast.17 mph68%29.71 "Hg10 mi
7:53 PM22 °FMostly cloudy.15 mph68%29.72 "Hg9 mi
6:53 PM22 °FPassing clouds.13 mph72%29.70 "Hg10 mi
5:53 PM23 °FClear.14 mph68%29.68 "Hg10 mi
4:53 PM25 °FOvercast.14 mph60%29.65 "Hg10 mi
Weather by CustomWeather, © 2016

See weather overviewHow to use our weather pages